Regional Weather Roundup
Issued by NWS

Home | Current Version | Previous Version | Text Only | Print | Product List | Glossary On
Versions: 1 2 3 4 5 6 7 8 9 10 11 12 13 14 15 16 17 18 19 20 21 22 23 24 25 26 27 28 29 30 31 32 33 34 35 36 37 38 39 40 41 42 43 44 45 46 47 48 49 50
000
ASUS42 KTBW 072217
RWRFL
FLORIDA REGIONAL WEATHER ROUNDUP
NATIONAL WEATHER SERVICE TAMPA BAY RUSKIN FL
600 PM EDT TUE JUL 07 2015

NOTE: "FAIR" INDICATES FEW OR NO CLOUDS BELOW 12,000 FEET WITH NO
SIGNIFICANT WEATHER AND/OR OBSTRUCTIONS TO VISIBILITY.


FLZ001>010-012>015-112-114-115-072300-
PANHANDLE FLORIDA

CITY           SKY/WX    TMP DP  RH WIND       PRES   REMARKS
PENSACOLA      MOSUNNY   89  73  59 S13       30.10F HX  97
PENSACOLA NAS  MOSUNNY   88  74  63 SW9       30.11S HX  96
MILTON NAS     PTSUNNY   89  74  60 SW10      30.10  HX  98
CRESTVIEW      MOSUNNY   91  73  55 SW9       30.11F HX  99
DUKE FIELD     PTSUNNY   91  73  53 W10       30.09F HX  99
VALPARAISO     MOSUNNY   88  74  63 SW8       30.10F HX  97
MARY ESTHER    MOSUNNY   88  73  62 SW9       30.10F HX  96
TRI COUNTY     FAIR      93  70  46 NW3       30.10F HX  99
PANAMA CITY    FAIR      90  73  57 SW9       30.09F HX  98
TYNDALL AFB    MOSUNNY   88  72  59 W9        30.11S HX  95
APALACHICOLA   SUNNY     92  72  51 SW9       30.11S HX  99

STATION/POSITION SKY/WX   TEMP    WIND        PRES    WAVE   SWELL
                          AIR SEA DIR/SP/G            HT/PER HT/PER
                          (F)     (DEG/KT/KT) (MB)    (FT/S) (FT/S)
30.1N   87.6W              86 88  210/  6/ 10 1019.3F   1/ 5   2/ 5
29.2N   88.2W              85 89  150/  8/ 10 1020.1F   2/ 7   2/ 7
28.8N   86.0W              84 87   60/  4/  6 1020.2F   1/10   2/10
PANAMA CITY BEAC           84 84  240/  8/  8 1019.7F
CAPE SAN BLAS    NOT AVBL
TOWER C                    84     260/  5/  5 1019.9R
28.5N   84.5W              85 87   90/  6/  6 1020.0F   1/ 9   2/ 9

$$
FLZ011-016>038-118-127-128-134-139-239-072300-
NORTH FLORIDA

CITY           SKY/WX    TMP DP  RH WIND       PRES   REMARKS
MARIANNA       SUNNY     92  72  51 W3        30.09F HX  99
TALLAHASSEE    MOSUNNY   95  70  44 NE5       30.10S HX 101
PERRY          PTSUNNY   88  72  58 SW8       30.11R HX  95
CROSS CITY       N/A     87  75  67 W3        30.11S HX  96
LAKE CITY      CLOUDY    79  73  83 CALM      30.10S
GAINESVILLE    TSTM      75  73  93 E10       30.14R
MAYPORT NAS    MOSUNNY   83  73  72 SE10      30.12R THUNDER
JACKSONVILLE   PTSUNNY   78  73  84 E6        30.11S
JAX NAS        TSTM      82  73  74 W9        30.13R
JAX CRAIG      MOSUNNY   85  68  56 SE8       30.12R
JAX CECIL      PTSUNNY   81  72  74 N12       30.12R
FERNANDINA BEA FAIR      86  73  66 E8        30.11F
ST AUGUSTINE   MOSUNNY   85  73  67 SE12      30.14R

STATION/POSITION SKY/WX   TEMP    WIND        PRES    WAVE   SWELL
                          AIR SEA DIR/SP/G            HT/PER HT/PER
                          (F)     (DEG/KT/KT) (MB)    (FT/S) (FT/S)
SHELL POINT                87     190/  9/ 13   N/A
KEATON BEACH               86     240/  7/  9 1019.9R
CEDAR KEY                  86     240/  3/  4 1020.3S
FERNANDINA                 85 79  180/  5/  7 1019.7R
30.7N   81.3W                 79                N/A     2/ 9
MAYPORT                    83 77  120/  8/ 12 1020.3F
31.4N   80.9W              80 80  180/ 10/ 12 1020.4R   2/ 9   2/ 9
ST AUGUSTINE               77 77  170/  9/ 10 1021.3R

$$
FLZ040-043>046-052-053-057-058-063-144-072300-
INTERIOR CENTRAL FLORIDA

CITY           SKY/WX    TMP DP  RH WIND       PRES   REMARKS
OCALA          MOSUNNY   82  70  65 S5        30.14R
THE VILLAGES     N/A    N/A N/A N/A SE6       30.05S
LEESBURG       LGT RAIN  77  71  82 S10       30.17R
SANFORD        LGT RAIN  75  71  87 SW9       30.14F
ORLANDO EXEC   LGT RAIN  75  73  93 SW9       30.16S
ORLANDO INTL   TSTM      76  73  91 W5        30.17R
KISSIMMEE      TSTM      75  73  94 S5        30.17S
WINTER HAVEN   CLOUDY    77  71  82 S8        30.17F
LAKELAND       LGT RAIN  73  73 100 CALM        N/A
OKEECHOBEE     CLOUDY    81  72  74 CALM      30.16F

$$
FLZ041-047-054-059-064-141-147-072300-
EAST CENTRAL FLORIDA

CITY           SKY/WX    TMP DP  RH WIND       PRES   REMARKS
ORMOND BEACH   SUNNY     82  72  69 S7        30.13S
DAYTONA BEACH  CLOUDY    80  72  76 S8        30.14R
DELAND           N/A     79  72  78 S12G17    30.16R
NEW SMYRNA BEA MOSUNNY   81  73  78 W6        30.14S
JFK SPACE CTR  PTSUNNY   81  72  74 SW3       30.14F
TITUSVILLE     PTSUNNY   75  72  88 SW12      30.16S
CAPE CANAVERAL PTSUNNY   82  72  71 SW7       30.14S
PATRICK AFB    CLOUDY    81  72  74 VRB2      30.16R THUNDER
MELBOURNE      TSTM      76  72  87 W6G16     30.16R FOG
VERO BEACH     PTSUNNY   87  69  54 VRB6      30.15S
FT PIERCE      PTSUNNY   86  73  65 SE5       30.14S
STUART         MOSUNNY   84  72  65 E9        30.15S

STATION/POSITION SKY/WX   TEMP    WIND        PRES    WAVE   SWELL
                          AIR SEA DIR/SP/G            HT/PER HT/PER
                          (F)     (DEG/KT/KT) (MB)    (FT/S) (FT/S)
28.5N   80.2W              83 85  150/ 10/ 12 1021.1F
28.9N   78.5W              83 85  170/  8/ 10 1021.1F
TRIDENT PIER               84 78  170/  3/  4 1021.6F
28.4N   80.5W                 81                N/A     1/ 9
27.5N   80.2W                 82                N/A     2/ 8

$$
FLZ050-056-061-142-242-148-248-149-249-151-251-155-255-
160-260-072300-
WEST CENTRAL FLORIDA

CITY           SKY/WX    TMP DP  RH WIND       PRES   REMARKS
CRYSTAL RIVER  FAIR      86  72  62 S3        30.13S
INVERNESS      FAIR     N/A N/A N/A S9        30.15S HAZE
BROOKSVILLE      N/A     79  72  79 E6        30.16R
ZEPHYRHILLS    LGT RAIN  72  72 100 CALM      30.17R
CLEARWATER     CLOUDY    82  73  74 SE9       30.14R
TAMPA INTL     TSTM      78  68  71 NE9G17    30.17R
TAMPA EXEC     LGT RAIN N/A N/A N/A CALM      30.18R
PLANT CITY     LGT RAIN  75  73  94 CALM      30.18F
MACDILL AFB    CLOUDY    79  74  84 SE8       30.15R
PETER O KNIGHT CLOUDY    81  72  74 E9        30.17R
ST PETERSBURG  CLOUDY    81  73  76 SE15      30.13R
SARASOTA       CLOUDY    75  70  84 SE12      30.14R
VENICE         FAIR      77  72  83 SE6       30.16S THUNDER

STATION/POSITION SKY/WX   TEMP    WIND        PRES    WAVE   SWELL
                          AIR SEA DIR/SP/G            HT/PER HT/PER
                          (F)     (DEG/KT/KT) (MB)    (FT/S) (FT/S)
CEDAR KEY                  86     240/  3/  4 1020.3S
28.5N   84.5W              85 87   90/  6/  6 1020.0F   1/ 9   2/ 9
27.3N   84.2W                 88                N/A     1/ 8
CLEARWATER BEACH           85 89  310/  4/  6 1020.6R
MIDDLE TAMPA BAY                  180/  8/  9 1020.7R
VENICE                     82 90   80/ 13/ 17 1020.6R

$$
FLZ066-069-070-075>078-162-262-165-265-072300-
SOUTHWEST FLORIDA AND KEYS

CITY           SKY/WX    TMP DP  RH WIND       PRES   REMARKS
PUNTA GORDA    CLOUDY    78  72  81 N5        30.16F
FT MYERS       CLOUDY    82  71  69 N9        30.14R
SOUTHWEST INTL CLOUDY    82  70  66 CALM      30.15R
NAPLES         MOSUNNY   77  72  83 MISG      30.12R
MARCO ISLAND   MOCLDY    77  72  83 NE5       30.12R
MARATHON       SUNNY     89  77  67 E10G17    30.09F HX 101
KEY WEST NAS   MOSUNNY   89  75  63 SE14      30.08F HX  99
KEY WEST INTL  SUNNY     88  76  67 SE14      30.08F HX  99

STATION/POSITION SKY/WX   TEMP    WIND        PRES    WAVE   SWELL
                          AIR SEA DIR/SP/G            HT/PER HT/PER
                          (F)     (DEG/KT/KT) (MB)    (FT/S) (FT/S)
VENICE                     82 90   80/ 13/ 17 1020.6R
NAPLES                        87              1020.6F
26.0N   85.6W              85 86   90/  8/ 10 1019.0F   2/10   2/10
DRY TORTUGAS               85     120/ 11/ 12 1019.4F
NW FL BAY                  85     120/  9/ 11 1019.5
SAND KEY                   85     110/ 12/ 14 1018.9F
SOMBRERO KEY               86     120/ 17/ 18 1019.5F
LONG KEY                   85 89  150/ 10/ 12 1019.6F
MOLASSES REEF              84 86   90/ 11/ 12 1019.7F

$$
FLZ067-068-071>074-168-172>174-072300-
SOUTHEAST FLORIDA

CITY           SKY/WX    TMP DP  RH WIND       PRES   REMARKS
W PALM BEACH   PTSUNNY   86  73  65 SE10      30.13R
FT LAUDER-EXEC PTSUNNY   88  73  61 SE12      30.09F HX  95
FT LAUDERDALE  PTSUNNY   87  74  64 SE16      30.08F HX  95
POMPANO BEACH  PTSUNNY   86  74  67 SE14      30.10S
PEMBROKE PINES PTSUNNY   86  72  62 SE12      30.10F
OPA LOCKA      PTSUNNY   86  73  65 SE15      30.09F
MIAMI          PTSUNNY   86  73  65 E16       30.09F
WEST KENDALL   PTSUNNY   87  71  58 SE13      30.09F
HOMESTEAD      PTSUNNY   86  73  65 E12       30.09F

STATION/POSITION SKY/WX   TEMP    WIND        PRES    WAVE   SWELL
                          AIR SEA DIR/SP/G            HT/PER HT/PER
                          (F)     (DEG/KT/KT) (MB)    (FT/S) (FT/S)
PORT EVERGLADES            85     130/  9/ 12 1019.4F
VIRGINIA KEY               85 89  120/ 10/ 12 1019.3F
LAKE WORTH                 83 86  130/ 13/ 14 1019.5F



USA.gov is the U.S. government's official web portal to all federal, state and local government web resources and services.